Home   Weather   Kingston   Past weeks
Flag for Norfolk Island

Past Weather in Kingston, Norfolk Island — Yesterday and Last 2 Weeks

Now
61 °F

Passing clouds.


Feels Like: 61 °F
Forecast: 65 / 56 °F
Wind: 8 mph from Southwest

Location: Norfolk Island Airport

Current Time: Oct 16, 2019 at 10:00:57 pm

Latest Report: Oct 16, 2019 at 9:30 pm


Visibility: N/A

Pressure: 30.12 "Hg

Humidity: 63%

Dew Point: 48 °F

Location of KingstonLocation

Past Weather in Kingston — Graph

°F

Kingston Temperature Yesterday

Maximum temperature yesterday: 68 °F (at 12:30 pm)
Minimum temperature yesterday: 61 °F (at 12:00 am)
Average temperature yesterday: 63 °F

High & Low Weather Summary for the Past Weeks

 TemperatureHumidityPressure
High68 °F (Oct 7, 11:00 am)100% (Oct 11, 8:00 am)30.33 "Hg (Oct 11, 8:00 am)
Low55 °F (Oct 3, 2:30 am)52% (Oct 2, 10:00 am)29.53 "Hg (Oct 14, 2:19 am)
Average62 °F76%30.04 "Hg
* Reported Oct 1 8:00 pm — Oct 16 9:00 pm, Kingston. Weather by CustomWeather, © 2019

Note: Actual official high and low records may vary slightly from our data, if they occured in-between our weather recording intervals... More about our weather records

Advertising

Kingston Weather History for the Previous 24 Hours

Scroll right to see more
 ConditionsComfort  
Time TempWeatherWind HumidityBarometerVisibility
9:00 pm
Wed, Oct 16
61 °FPassing clouds.8 mph63%30.09 "HgN/A
8:30 pm61 °FPassing clouds.7 mph68%30.09 "HgN/A
8:00 pm59 °FPassing clouds.6 mph72%30.09 "HgN/A
7:30 pm61 °FPassing clouds.7 mph68%30.07 "HgN/A
7:00 pm61 °FPassing clouds.9 mph68%30.07 "HgN/A
6:30 pm63 °FScattered clouds.10 mph64%30.07 "HgN/A
6:00 pm64 °FScattered clouds.12 mph60%30.07 "HgN/A
5:30 pm64 °FScattered clouds.10 mph64%30.04 "HgN/A
5:00 pm64 °FScattered clouds.13 mph64%30.04 "HgN/A
4:30 pm64 °FScattered clouds.12 mph64%30.04 "HgN/A
4:00 pm66 °FPassing clouds.13 mph56%30.04 "HgN/A
3:30 pm64 °FPassing clouds.13 mph60%30.04 "HgN/A
2:30 pm66 °FPassing clouds.13 mph56%30.04 "HgN/A
2:00 pm66 °FPassing clouds.15 mph60%30.04 "HgN/A
1:30 pm66 °FPassing clouds.13 mph64%30.04 "HgN/A
1:00 pm66 °FScattered clouds.13 mph60%30.04 "HgN/A
12:30 pm66 °FScattered clouds.16 mph64%30.04 "HgN/A
12:00 pm66 °FScattered clouds.14 mph64%30.04 "HgN/A
11:30 am63 °FPassing clouds.13 mph68%30.04 "HgN/A
11:00 am64 °FPassing clouds.13 mph68%30.04 "HgN/A
10:30 am64 °FScattered clouds.14 mph68%30.04 "HgN/A
10:00 am64 °FScattered clouds.9 mph68%30.04 "HgN/A
9:30 am59 °FScattered clouds.14 mph88%30.04 "HgN/A
9:00 am64 °FPartly sunny.13 mph68%30.04 "HgN/A
8:30 am63 °FScattered clouds.12 mph68%30.01 "HgN/A
8:00 am61 °FScattered clouds.12 mph72%30.01 "HgN/A
7:30 am61 °FPartly sunny.10 mph77%30.01 "HgN/A
7:00 am61 °FSprinkles. Partly sunny.10 mph72%30.01 "HgN/A
6:30 am61 °FPartly sunny.12 mph72%29.98 "HgN/A
6:00 am61 °FSprinkles. Partly cloudy.10 mph72%29.98 "HgN/A
5:30 am61 °FPartly cloudy.12 mph72%29.95 "HgN/A
5:00 am61 °FPassing clouds.12 mph72%29.95 "HgN/A
4:30 am61 °FPassing clouds.13 mph72%29.95 "HgN/A
4:00 am61 °FPassing clouds.13 mph72%29.92 "HgN/A
3:30 am61 °FPartly cloudy.14 mph68%29.92 "HgN/A
3:00 am59 °FMostly cloudy.12 mph77%29.92 "HgN/A
2:30 am59 °FMostly cloudy.14 mph77%29.92 "HgN/A
2:00 am61 °FPassing clouds.15 mph68%29.92 "HgN/A
1:30 am59 °FSprinkles. Partly cloudy.10 mph77%29.92 "HgN/A
1:00 am59 °FLight rain. Passing clouds.21 mph72%29.92 "HgN/A
12:30 am61 °FPartly cloudy.14 mph68%29.92 "HgN/A
12:00 am61 °FPassing clouds.15 mph63%29.92 "HgN/A
11:30 pm
Tue, Oct 15
61 °FPassing clouds.16 mph68%29.92 "HgN/A
11:00 pm61 °FPartly cloudy.15 mph63%29.92 "HgN/A
10:30 pm61 °FPassing clouds.16 mph63%29.92 "HgN/A
10:00 pm61 °FPassing clouds.16 mph63%29.92 "HgN/A
Weather by CustomWeather, © 2019

See weather overview